When you browse on this site, cookies collect data to enhance your experience and personalize the content and advertising you see.
Visit our Privacy Policy to learn more. By continuing to use the site, you agree to this use of cookies and data.
  • In Hungary
  • List of Countries
  • For 7 days
  • Water Temperature
  • Satellite Maps
  • Weather Map
  • News
  • Weather Widgets
  • user-avatar
    Login

    Hourly Weather Khadki

    Today, 18 March, Monday

    Time Temperature Precipitation Wind Pressure Humidity
    00:00 +27°C° 0 mm 2 mps 712 mmHg 33%
    01:00 +27°C° 0 mm 2 mps 711 mmHg 33%
    02:00 +26°C° 0 mm 2 mps 711 mmHg 34%
    03:00 +26°C° 0 mm 1 mps 711 mmHg 34%
    04:00 +25°C° 0 mm 1 mps 711 mmHg 34%
    05:00 +23°C° 0 mm 0 mps 711 mmHg 33%
    06:00 +26°C° 0 mm 1 mps 712 mmHg 30%
    07:00 +28°C° 0 mm 1 mps 712 mmHg 27%
    08:00 +29°C° 0 mm 2 mps 713 mmHg 24%
    09:00 +31°C° 0 mm 1 mps 713 mmHg 21%
    10:00 +33°C° 0 mm 1 mps 713 mmHg 17%
    11:00 +35°C° 0 mm 1 mps 714 mmHg 14%
    12:00 +36°C° 0 mm 1 mps 713 mmHg 13%
    13:00 +38°C° 0 mm 2 mps 713 mmHg 13%
    14:00 +39°C° 0 mm 3 mps 712 mmHg 12%
    15:00 +38°C° 0 mm 4 mps 712 mmHg 13%
    16:00 +39°C° 0 mm 5 mps 712 mmHg 13%
    17:00 +39°C° 0 mm 6 mps 711 mmHg 12%
    18:00 +36°C° 0 mm 5 mps 711 mmHg 16%
    19:00 +34°C° 0 mm 5 mps 711 mmHg 20%
    20:00 +32°C° 0 mm 4 mps 712 mmHg 23%
    21:00 +30°C° 0 mm 4 mps 712 mmHg 26%
    22:00 +29°C° 0 mm 3 mps 712 mmHg 28%
    23:00 +28°C° 0 mm 3 mps 712 mmHg 30%

    Tomorrow, 19 March, Tuesday

    Time Temperature Precipitation Wind Pressure Humidity
    00:00 +28°C° 0 mm 2 mps 711 mmHg 30%
    01:00 +27°C° 0 mm 2 mps 711 mmHg 31%
    02:00 +26°C° 0 mm 1 mps 710 mmHg 31%
    03:00 +26°C° 0 mm 1 mps 710 mmHg 31%
    04:00 +26°C° 0 mm 1 mps 710 mmHg 30%
    05:00 +25°C° 0 mm 1 mps 710 mmHg 30%
    06:00 +27°C° 0 mm 1 mps 710 mmHg 27%
    07:00 +28°C° 0 mm 1 mps 711 mmHg 23%
    08:00 +29°C° 0 mm 1 mps 711 mmHg 20%
    09:00 +31°C° 0 mm 1 mps 712 mmHg 17%
    10:00 +34°C° 0 mm 2 mps 712 mmHg 14%
    11:00 +36°C° 0 mm 2 mps 712 mmHg 12%
    12:00 +37°C° 0 mm 2 mps 711 mmHg 11%
    13:00 +38°C° 0 mm 2 mps 711 mmHg 11%
    14:00 +39°C° 0 mm 2 mps 710 mmHg 10%
    15:00 +39°C° 0 mm 3 mps 710 mmHg 10%
    16:00 +38°C° 0 mm 4 mps 710 mmHg 11%
    17:00 +39°C° 0 mm 5 mps 709 mmHg 11%
    18:00 +36°C° 0 mm 5 mps 710 mmHg 14%
    19:00 +34°C° 0 mm 4 mps 710 mmHg 17%
    20:00 +32°C° 0 mm 4 mps 710 mmHg 19%
    21:00 +30°C° 0 mm 3 mps 710 mmHg 21%
    22:00 +29°C° 0 mm 3 mps 710 mmHg 23%
    23:00 +29°C° 0 mm 3 mps 710 mmHg 25%

    Day after tomorrow, 20 March, Wednesday

    Time Temperature Precipitation Wind Pressure Humidity
    00:00 +28°C° 0 mm 2 mps 710 mmHg 25%
    01:00 +27°C° 0 mm 2 mps 710 mmHg 25%
    02:00 +27°C° 0 mm 2 mps 709 mmHg 25%
    03:00 +26°C° 0 mm 2 mps 709 mmHg 25%
    04:00 +26°C° 0 mm 2 mps 709 mmHg 25%
    05:00 +25°C° 0 mm 2 mps 709 mmHg 25%
    06:00 +27°C° 0 mm 2 mps 709 mmHg 23%
    07:00 +28°C° 0 mm 2 mps 710 mmHg 22%
    08:00 +29°C° 0 mm 1 mps 711 mmHg 20%
    09:00 +31°C° 0 mm 2 mps 711 mmHg 18%
    10:00 +34°C° 0 mm 2 mps 712 mmHg 16%
    11:00 +36°C° 0 mm 2 mps 712 mmHg 13%
    12:00 +37°C° 0 mm 2 mps 711 mmHg 12%
    13:00 +37°C° 0 mm 1 mps 711 mmHg 12%
    14:00 +39°C° 0 mm 1 mps 710 mmHg 11%
    15:00 +38°C° 0 mm 2 mps 710 mmHg 12%
    16:00 +38°C° 0 mm 4 mps 709 mmHg 14%
    17:00 +39°C° 0 mm 5 mps 709 mmHg 15%
    18:00 +35°C° 0 mm 5 mps 710 mmHg 20%
    19:00 +33°C° 0 mm 5 mps 710 mmHg 26%
    20:00 +30°C° 0 mm 5 mps 710 mmHg 31%
    21:00 +30°C° 0 mm 4 mps 711 mmHg 32%
    22:00 +29°C° 0 mm 4 mps 711 mmHg 33%
    23:00 +28°C° 0 mm 3 mps 711 mmHg 35%

    21 March, Thursday

    Time Temperature Precipitation Wind Pressure Humidity
    00:00 +27°C° 0 mm 3 mps 710 mmHg 34%
    01:00 +27°C° 0 mm 3 mps 710 mmHg 34%
    02:00 +26°C° 0 mm 3 mps 709 mmHg 34%
    03:00 +26°C° 0 mm 2 mps 709 mmHg 34%
    04:00 +25°C° 0 mm 2 mps 709 mmHg 34%
    05:00 +25°C° 0 mm 1 mps 709 mmHg 34%
    06:00 +26°C° 0 mm 1 mps 710 mmHg 32%
    07:00 +27°C° 0 mm 1 mps 711 mmHg 29%
    08:00 +28°C° 0 mm 2 mps 712 mmHg 26%
    09:00 +30°C° 0 mm 2 mps 712 mmHg 23%
    10:00 +32°C° 0 mm 2 mps 713 mmHg 19%
    11:00 +35°C° 0 mm 2 mps 713 mmHg 16%
    12:00 +36°C° 0 mm 2 mps 712 mmHg 15%
    13:00 +37°C° 0 mm 3 mps 712 mmHg 14%
    14:00 +38°C° 0 mm 3 mps 711 mmHg 13%
    15:00 +38°C° 0 mm 4 mps 711 mmHg 14%
    16:00 +37°C° 0 mm 5 mps 711 mmHg 15%
    17:00 +38°C° 0 mm 6 mps 710 mmHg 16%
    18:00 +35°C° 0 mm 5 mps 711 mmHg 21%
    19:00 +33°C° 0 mm 5 mps 711 mmHg 26%
    20:00 +30°C° 0 mm 4 mps 712 mmHg 31%
    21:00 +30°C° 0 mm 4 mps 712 mmHg 34%
    22:00 +29°C° 0 mm 3 mps 712 mmHg 36%
    23:00 +28°C° 0 mm 3 mps 712 mmHg 39%

    22 March, Friday

    Time Temperature Precipitation Wind Pressure Humidity
    00:00 +27°C° 0 mm 3 mps 712 mmHg 38%
    01:00 +27°C° 0 mm 2 mps 711 mmHg 37%
    02:00 +26°C° 0 mm 2 mps 710 mmHg 36%
    03:00 +26°C° 0 mm 2 mps 710 mmHg 34%
    04:00 +25°C° 0 mm 2 mps 711 mmHg 31%
    05:00 +25°C° 0 mm 1 mps 711 mmHg 29%
    06:00 +26°C° 0 mm 1 mps 711 mmHg 25%
    07:00 +27°C° 0 mm 1 mps 712 mmHg 22%
    08:00 +28°C° 0 mm 1 mps 713 mmHg 19%
    09:00 +30°C° 0 mm 1 mps 713 mmHg 17%
    10:00 +32°C° 0 mm 2 mps 714 mmHg 15%
    11:00 +36°C° 0 mm 2 mps 714 mmHg 13%
    12:00 +37°C° 0 mm 2 mps 713 mmHg 13%
    13:00 +37°C° 0 mm 3 mps 712 mmHg 13%
    14:00 +38°C° 0 mm 3 mps 712 mmHg 13%
    15:00 +38°C° 0 mm 4 mps 711 mmHg 13%
    16:00 +37°C° 0 mm 5 mps 711 mmHg 14%
    17:00 +38°C° 0 mm 6 mps 711 mmHg 15%
    18:00 +35°C° 0 mm 5 mps 711 mmHg 18%
    19:00 +33°C° 0 mm 4 mps 712 mmHg 21%
    20:00 +31°C° 0 mm 3 mps 712 mmHg 24%
    21:00 +30°C° 0 mm 3 mps 712 mmHg 26%
    22:00 +29°C° 0 mm 3 mps 712 mmHg 28%
    23:00 +28°C° 0 mm 3 mps 712 mmHg 30%

    23 March, Saturday

    Time Temperature Precipitation Wind Pressure Humidity
    00:00 +27°C° 0 mm 3 mps 711 mmHg 30%
    01:00 +27°C° 0 mm 2 mps 711 mmHg 30%
    02:00 +26°C° 0 mm 2 mps 710 mmHg 30%
    03:00 +26°C° 0 mm 2 mps 710 mmHg 30%
    04:00 +25°C° 0 mm 2 mps 710 mmHg 30%
    05:00 +25°C° 0 mm 2 mps 711 mmHg 31%
    06:00 +26°C° 0 mm 2 mps 711 mmHg 27%
    07:00 +28°C° 0 mm 1 mps 712 mmHg 24%
    08:00 +29°C° 0 mm 1 mps 713 mmHg 21%
    09:00 +31°C° 0 mm 2 mps 713 mmHg 17%
    10:00 +35°C° 0 mm 2 mps 713 mmHg 13%
    11:00 +37°C° 0 mm 2 mps 713 mmHg 9%
    12:00 +38°C° 0 mm 2 mps 712 mmHg 9%
    13:00 +39°C° 0 mm 2 mps 711 mmHg 9%
    14:00 +40°C° 0 mm 2 mps 711 mmHg 8%
    15:00 +40°C° 0 mm 3 mps 710 mmHg 8%
    16:00 +41°C° 0 mm 4 mps 710 mmHg 8%
    17:00 +40°C° 0 mm 5 mps 710 mmHg 8%
    18:00 +37°C° 0 mm 4 mps 710 mmHg 11%
    19:00 +35°C° 0 mm 4 mps 710 mmHg 14%
    20:00 +34°C° 0 mm 3 mps 711 mmHg 17%
    21:00 +33°C° 0 mm 3 mps 711 mmHg 19%
    22:00 +31°C° 0 mm 2 mps 711 mmHg 21%
    23:00 +30°C° 0 mm 2 mps 711 mmHg 23%
    Show more